Weather History for PAOR - November, 2013

Change the Weather History Date:

Thursday, November 7, 2013

  Actual Average Record
Temperature  
Mean Temperature 14 °F -  
Max Temperature 16 °F 9 °F 30 °F (1979)
Min Temperature 12 °F -6 °F -39 °F (1956)
Degree Days  
Heating Degree Days 51    
Moisture  
Dew Point 10 °F    
Average Humidity 83    
Maximum Humidity 88    
Minimum Humidity 74    
Precipitation  
Precipitation 0.00 in - - ()
Snow  
Snow 0.00 in - - ()
Snow Depth 1.00 in    
Sea Level Pressure  
Sea Level Pressure 30.09 in    
Wind  
Wind Speed 1 mph (SE)    
Max Wind Speed 7 mph    
Max Gust Speed -    
Visibility 7 miles    
Events Snow    
Averages and records for this station are not official NWS values.
T = Trace of Precipitation, MM = Missing Value Source: NWS Daily Summary

Daily Weather History Graph

Daily Weather History Graph

Search for Another Location

Airport or City:

Trip Planner

Search our weather history database for the weather conditions in past years. The results will help you decide how hot, cold, wet, or windy it might be!

Date:

Astronomy

Nov. 07, 2013 Rise Set
Actual Time 8:23 AM AKST 3:58 PM AKST
Civil Twilight 7:30 AM AKST 4:51 PM AKST
Nautical Twilight 6:34 AM AKST 5:47 PM AKST
Astronomical Twilight 5:41 AM AKST 6:40 PM AKST
Moon 12:57 PM AKST (11/7) 8:06 PM AKST (11/7)
Length of Visible Light 9h 20m
Length of Day
7h 34m
Waxing Crescent, 24% of the Moon is Illuminated
Nov 7
Waxing Crescent
Nov 9
First Quarter
Nov 17
Full
Nov 25
Last Quarter
Dec 2
New

Hourly Weather History & Observations

Time (AKST) Temp. Windchill Dew Point Humidity Pressure Visibility Wind Dir Wind Speed Gust Speed Precip Events Conditions
12:53 AM 14.0 °F - 10.9 °F 88% 30.17 in 6.0 mi Calm Calm - N/A Snow Light Snow
1:53 AM 14.0 °F - 10.9 °F 88% 30.16 in 4.0 mi Calm Calm - N/A Snow Light Snow
2:53 AM 14.0 °F - 10.9 °F 88% 30.15 in 6.0 mi Calm Calm - N/A Snow Light Snow
3:53 AM 14.0 °F - 10.9 °F 88% 30.14 in 5.0 mi Calm Calm - N/A Snow Light Snow
4:53 AM 14.0 °F - 10.9 °F 88% 30.13 in 5.0 mi Calm Calm - N/A Snow Light Snow
5:53 AM 14.0 °F - 10.9 °F 88% 30.13 in 9.0 mi Calm Calm - N/A Snow Light Snow
6:53 AM 14.0 °F - 10.9 °F 88% 30.12 in 9.0 mi Calm Calm - N/A Snow Light Snow
7:53 AM 14.0 °F - 10.9 °F 88% 30.11 in 9.0 mi Calm Calm - N/A Snow Light Snow
8:53 AM 14.0 °F - 10.9 °F 88% 30.09 in 9.0 mi Calm Calm - N/A Snow Light Snow
9:53 AM 14.0 °F - 10.9 °F 88% 30.09 in 4.0 mi Calm Calm - N/A Snow Light Snow
10:53 AM 15.1 °F 9.4 °F 12.0 °F 88% 30.09 in 7.0 mi SE 3.5 mph - N/A Snow Light Snow
11:53 AM 15.1 °F 7.7 °F 10.0 °F 80% 30.08 in 6.0 mi SSE 4.6 mph - N/A Snow Light Snow
12:53 PM 16.0 °F 7.4 °F 10.0 °F 77% 30.07 in 6.0 mi ESE 5.8 mph - N/A Snow Light Snow
1:53 PM 16.0 °F - 10.9 °F 81% 30.06 in 8.0 mi Calm Calm - N/A Snow Light Snow
2:53 PM 16.0 °F 8.8 °F 9.0 °F 74% 30.05 in 8.0 mi SE 4.6 mph - N/A Snow Light Snow
3:53 PM 15.1 °F 5.2 °F 8.1 °F 74% 30.05 in 8.0 mi ESE 6.9 mph - N/A Snow Light Snow
4:53 PM 15.1 °F 7.7 °F 8.1 °F 74% 30.05 in 9.0 mi East 4.6 mph - N/A Snow Light Snow
5:53 PM 15.1 °F 9.4 °F 9.0 °F 77% 30.06 in 9.0 mi SE 3.5 mph - N/A Snow Light Snow
6:53 PM 14.0 °F - 10.0 °F 84% 30.06 in 8.0 mi Calm Calm - N/A Snow Light Snow
7:53 PM 14.0 °F 6.5 °F 10.0 °F 84% 30.06 in 9.0 mi SE 4.6 mph - N/A Snow Light Snow
8:53 PM 14.0 °F 8.2 °F 9.0 °F 80% 30.07 in 9.0 mi ESE 3.5 mph - N/A Snow Light Snow
9:53 PM 12.9 °F 6.9 °F 9.0 °F 84% 30.07 in 6.0 mi SSE 3.5 mph - N/A Snow Light Snow
10:53 PM 12.9 °F 6.9 °F 9.0 °F 84% 30.09 in 6.0 mi SSE 3.5 mph - N/A Snow Light Snow
11:53 PM 12.9 °F - 8.1 °F 81% 30.10 in 6.0 mi Calm Calm - N/A Snow Light Snow